User: anonymous   Login
Location: Unspecified
(0.0000°N, 0.0000°E)
Time: 08:47:03
(UTC+00:00)
Language:

EO-79 - Orbit

View from above orbital plane
View from above orbital plane
View from above satellite
View from above satellite

Ground track
Ground track

The orbit data is extracted from the following two-line orbital elements,

1 40025U 14033R   21340.52378402  .00000655  00000-0  74431-4 0  9992
2 40025  97.9451 271.7554 0011848 339.2076  20.8657 14.89679285405030
Epoch (UTC): 06 December 2021 12:34:14
Eccentricity: 0.0011848
inclination: 97.9451°
perigee height: 590 km
apogee height: 607 km
right ascension of ascending node: 271.7554°
argument of perigee: 339.2076°
revolutions per day: 14.89679285
mean anomaly at epoch: 20.8657°
orbit number at epoch: 40503

The dashed part of the orbit path shows where the satellite is in the earth's shadow,  

DLR